ASTRA 4A

Last updated on Tue Sep 22 2026 00:03:11 GMT+0000 (Coordinated Universal Time)

1 32299U 07057A 26264.27621640 .00000000 00000+0 00000+0 0 9990 2 32299 0.0137 150.4552 0002496 33.4438 280.5037 1.00270023 52610
UTC large
Height (km)
Speed (km/s)
/
Latitude / Longitude
Inclination (degrees)
Orbital Period (minutes)
Azimuth
Elevation
Range (km)
Doppler Factor

Next 0 passes for location: London (51.5072 / 0.1276)

No passes found over London.
ASTRA 4A